[[{"header":{"parameterUnit":"m.s-1","parameterCategory":1,"la1":30.2991,"la2":30.254,"lo1":-89.0895,"lo2":-89.0444,"dy":0.0017,"dx":0.0017,"nx":28,"ny":28,"refTime":"2024-12-06T03:00:00:Z","depth":0,"parameterNumber":2,"parameterNumberName":"U-component_of_WINDS"},"data":[0,0,0,0,0,0,0,0,0,0,0,0,0,0,0,0,0,0,0,0,0,0,0,0,0,0,0,0,0,0,0,0,0,0,0,0,0,0,0,0,0,0,0,0,0,0,0,0,0,0,0,0,0,0,0,0,0,0,-2.5321,-2.5321,0,-2.5304,-2.5304,-2.5304,-2.5225,-2.5223,-2.5221,-2.5219,-2.5204,-2.5206,-2.5207,0,0,0,0,0,0,0,0,0,0,0,0,0,-2.5286,-2.5288,-2.5321,-2.5321,-2.532,-2.5304,-2.5304,-2.5304,-2.5225,-2.5223,-2.522,-2.5218,-2.5204,-2.5206,-2.5207,0,0,0,0,0,0,0,0,0,0,0,0,0,-2.5289,-2.5288,-2.5321,-2.5279,-2.5275,-2.5304,-2.5304,-2.5304,-2.5225,-2.5223,-2.522,-2.5217,-2.5203,-2.5205,-2.5207,-2.5276,0,0,-2.5214,-2.5214,0,0,0,0,0,0,0,0,-2.5289,-2.529,-2.5285,-2.5282,-2.5278,-2.5264,-2.5286,-2.5295,-2.5226,-2.5244,-2.5219,-2.5216,-2.5227,-2.5226,-2.523,-2.5275,-2.5275,-2.5214,-2.5215,-2.5216,-2.5216,0,0,0,0,0,0,0,-2.5289,-2.5291,-2.5314,-2.5286,-2.5281,-2.5262,-2.5259,-2.5288,-2.5252,-2.5243,-2.5237,-2.5236,-2.5224,-2.5228,-2.5229,-2.5275,-2.5214,-2.5216,-2.5217,-2.5218,-2.5377,-2.538,0,0,0,0,0,0,-2.5294,-2.5291,-2.5315,-2.5314,-2.5276,-2.5265,-2.5262,-2.5271,-2.5251,-2.5245,-2.5238,-2.5232,-2.5226,-2.5226,-2.5228,-2.5308,-2.5216,-2.5218,-2.5219,-2.5374,-2.5378,-2.5381,0,0,0,0,0,0,-2.5294,-2.5297,-2.5315,-2.5301,-2.5302,-2.5268,-2.5279,-2.5272,-2.5276,-2.5248,-2.5241,-2.5249,-2.5224,-2.5225,-2.5265,-2.5306,-2.5219,-2.5221,-2.5371,-2.5375,-2.538,-2.5469,0,0,0,0,0,0,-2.5293,-2.5297,-2.5323,-2.5302,-2.5303,-2.5352,-2.5282,-2.5274,-2.5279,-2.5271,-2.5256,-2.5251,-2.5221,-2.5262,-2.5267,-2.5308,-2.5222,-2.5367,-2.5373,-2.5378,-2.5462,-2.5476,-2.5488,0,0,0,0,0,-2.5292,-2.5349,-2.5324,-2.5328,-2.5334,-2.5355,-2.5355,-2.532,-2.5283,-2.5309,-2.5291,-2.5251,-2.5301,-2.5267,-2.5272,-2.5314,-2.5364,-2.5371,-2.5378,-2.5456,-2.5473,-2.5487,0,0,0,0,0,0,-2.5376,-2.5345,-2.5318,-2.5369,-2.5365,-2.5341,-2.5373,-2.5339,-2.5346,-2.5338,-2.5295,-2.5292,-2.5339,-2.533,-2.5293,-2.538,-2.5326,-2.5334,-2.5384,-2.54,-2.5412,-2.5414,-2.5224,0,0,0,0,0,-2.54,-2.542,-2.5392,-2.544,-2.5439,-2.5407,-2.5414,-2.5388,-2.5382,-2.538,-2.5365,-2.5362,-2.5376,-2.5387,-2.5399,-2.546,-2.5456,-2.5491,-2.5504,-2.5514,-2.5523,-2.5555,-2.5571,-2.5404,-2.5403,-2.5403,0,0,-2.5451,-2.5437,-2.5452,-2.5456,-2.545,-2.5472,-2.5406,-2.5431,-2.5447,-2.5384,-2.5421,-2.541,-2.5403,-2.5454,-2.5476,-2.5448,-2.5568,-2.5523,-2.5532,-2.5534,-2.5564,-2.558,-2.5594,-2.5408,-2.5407,-2.5407,0,0,-2.5555,-2.5545,-2.5585,-2.558,-2.5571,-2.5549,-2.5559,-2.554,-2.553,-2.5566,-2.5519,-2.5538,-2.5564,-2.5562,-2.5564,-2.5668,-2.5632,-2.5673,-2.574,-2.5773,-2.5786,-2.5798,-2.5836,-2.585,-2.568,-2.5681,-2.5681,0,-2.562,-2.565,-2.561,-2.5639,-2.5643,-2.5586,-2.5626,-2.5623,-2.5619,-2.5624,-2.5593,-2.5625,-2.5616,-2.5667,-2.5692,-2.5695,-2.5706,-2.5675,-2.5787,-2.5798,-2.5809,-2.5845,-2.5859,-2.5686,-2.5685,-2.5685,-2.5684,0,-2.5731,-2.5752,-2.5785,-2.5783,-2.579,-2.5825,-2.5791,-2.5803,-2.5776,-2.5757,-2.5796,-2.5783,-2.5792,-2.5802,-2.5775,-2.5849,-2.5832,-2.5795,-2.574,-2.583,-2.5864,-2.5877,-2.5693,-2.5691,-2.569,-2.5688,0,0,-2.5888,-2.5862,-2.5875,-2.5874,-2.586,-2.5876,-2.5909,-2.5917,-2.5929,-2.5928,-2.5955,-2.5979,-2.5944,-2.5947,-2.592,-2.5948,-2.6033,-2.5907,-2.5906,-2.5932,-2.6115,-2.6144,-2.6161,-2.6008,-2.6011,-2.6013,-2.6116,0,-2.5989,-2.6042,-2.6007,-2.6067,-2.6087,-2.6033,-2.6061,-2.6056,-2.604,-2.6055,-2.6037,-2.6055,-2.6007,-2.6009,-2.6034,-2.6017,-2.6069,-2.6009,-2.6035,-2.6036,-2.604,-2.6178,-2.6209,-2.6308,-2.6128,-2.6131,-2.6132,0,-2.6114,-2.6118,-2.618,-2.6162,-2.617,-2.6196,-2.6201,-2.6216,-2.6209,-2.6196,-2.6199,-2.6164,-2.6196,-2.6141,-2.6184,-2.6144,-2.6153,-2.6146,-2.6149,-2.6151,-2.6091,-2.6186,-2.6338,-2.6354,-2.6152,-2.615,-2.6149,0,-2.6225,-2.6246,-2.6286,-2.6286,-2.6266,-2.6286,-2.6279,-2.6269,-2.6277,-2.6281,-2.6286,-2.6295,-2.63,-2.6308,-2.6277,-2.6239,-2.6325,-2.6267,-2.6316,-2.6317,-2.6338,-2.6338,-2.6495,-2.6341,-2.634,-2.634,-2.634,0,-2.6342,-2.6383,-2.6335,-2.636,-2.6404,-2.6363,-2.6408,-2.6395,-2.6387,-2.6409,-2.6362,-2.6384,-2.6341,-2.6359,-2.6335,-2.6376,-2.6378,-2.6369,-2.6363,-2.6374,-2.6376,-2.6381,-2.6374,-2.6344,-2.6343,-2.6342,-2.6342,0,-2.6474,-2.6444,-2.6484,-2.6462,-2.6457,-2.6491,-2.6472,-2.6495,-2.6475,-2.6504,-2.6508,-2.6477,-2.6496,-2.6465,-2.648,-2.6464,-2.6522,-2.6504,-2.6524,-2.6519,-2.6571,-2.6567,-2.6738,-2.676,-2.659,-2.6592,-2.6593,0,-2.6552,-2.6582,-2.6563,-2.6574,-2.6569,-2.6588,-2.6595,-2.6556,-2.6566,-2.6561,-2.6585,-2.6599,-2.6609,-2.6641,-2.6621,-2.6632,-2.6616,-2.6675,-2.6617,-2.6629,-2.6619,-2.6618,-2.6622,-2.6687,-2.6689,-2.6691,-2.6692,0,-2.6694,-2.6678,-2.669,-2.6697,-2.6707,-2.6711,-2.6712,-2.6724,-2.6682,-2.6696,-2.6714,-2.6722,-2.6737,-2.6752,-2.6759,-2.6752,-2.6717,-2.671,-2.6723,-2.6736,-2.6748,-2.6744,-2.6558,-2.6707,-2.6706,-2.6705,-2.6704,-2.6703,-2.6803,-2.6827,-2.6818,-2.6833,-2.6829,-2.6831,-2.6852,-2.6834,-2.6848,-2.6857,-2.6833,-2.6858,-2.6851,-2.6856,-2.6853,-2.6872,-2.6846,-2.6864,-2.6868,-2.6874,-2.6883,-2.6743,-2.6873,-2.6872,-2.6872,-2.6872,-2.6871,0,-2.6944,-2.6935,-2.695,-2.6952,-2.6964,-2.6928,-2.6927,-2.694,-2.6962,-2.6958,-2.6968,-2.699,-2.7005,-2.6986,-2.6997,-2.7017,-2.7001,-2.7021,-2.702,-2.702,-2.6904,-2.6893,-2.7034,-2.7034,-2.7034,-2.7034,-2.7034,-2.7034,-2.702,-2.7059,-2.7042,-2.708,-2.707,-2.7093,-2.7096,-2.7098,-2.7095,-2.7121,-2.7133,-2.712,-2.711,-2.7121,-2.7134,-2.7127,-2.7135,-2.7162,-2.7151,-2.7044,-2.7028,-2.7013,-2.7002,-2.7163,-2.7164,-2.7265,-2.7266,-2.7266]},{"header":{"parameterUnit":"m.s-1","parameterCategory":1,"la1":30.2991,"la2":30.254,"lo1":-89.0895,"lo2":-89.0444,"dy":0.0017,"dx":0.0017,"nx":28,"ny":28,"refTime":"2024-12-06T03:00:00:Z","depth":0,"parameterNumber":3,"parameterNumberName":"V-component_of_WINDS"},"data":[0,0,0,0,0,0,0,0,0,0,0,0,0,0,0,0,0,0,0,0,0,0,0,0,0,0,0,0,0,0,0,0,0,0,0,0,0,0,0,0,0,0,0,0,0,0,0,0,0,0,0,0,0,0,0,0,0,0,-0.7409,-0.7409,0,-0.7446,-0.7447,-0.7447,-0.7437,-0.7436,-0.7436,-0.7435,-0.7473,-0.7475,-0.7476,0,0,0,0,0,0,0,0,0,0,0,0,0,-0.7329,-0.733,-0.7409,-0.741,-0.741,-0.7446,-0.7447,-0.7447,-0.7437,-0.7436,-0.7436,-0.7435,-0.7472,-0.7475,-0.7477,0,0,0,0,0,0,0,0,0,0,0,0,0,-0.7364,-0.7331,-0.7409,-0.7409,-0.741,-0.7446,-0.7447,-0.7447,-0.7438,-0.7436,-0.7435,-0.7434,-0.7472,-0.7474,-0.7477,-0.7515,0,0,-0.7485,-0.7486,0,0,0,0,0,0,0,0,-0.7362,-0.7367,-0.7409,-0.7409,-0.741,-0.7436,-0.7432,-0.747,-0.7438,-0.7427,-0.7435,-0.7434,-0.7462,-0.7465,-0.7474,-0.7517,-0.7518,-0.7485,-0.7486,-0.7488,-0.7488,0,0,0,0,0,0,0,-0.736,-0.7366,-0.7424,-0.7409,-0.741,-0.7407,-0.7411,-0.7439,-0.745,-0.7428,-0.7427,-0.7432,-0.7462,-0.7472,-0.7475,-0.7519,-0.7485,-0.7487,-0.7489,-0.749,-0.7594,-0.7596,0,0,0,0,0,0,-0.7357,-0.7364,-0.7423,-0.7425,-0.7383,-0.741,-0.7414,-0.7429,-0.745,-0.7452,-0.7433,-0.7431,-0.7468,-0.7472,-0.7476,-0.7523,-0.7488,-0.749,-0.7491,-0.7593,-0.7595,-0.7596,0,0,0,0,0,0,-0.7355,-0.7362,-0.7421,-0.7394,-0.7401,-0.7412,-0.7429,-0.743,-0.744,-0.7453,-0.7455,-0.7441,-0.7467,-0.7473,-0.7505,-0.7524,-0.7491,-0.7493,-0.7592,-0.7594,-0.7595,-0.7616,0,0,0,0,0,0,-0.7353,-0.7362,-0.7377,-0.7395,-0.7403,-0.745,-0.743,-0.7432,-0.7445,-0.7443,-0.7462,-0.7464,-0.7467,-0.7502,-0.7508,-0.7527,-0.7495,-0.759,-0.7593,-0.7595,-0.7614,-0.7619,-0.7623,0,0,0,0,0,-0.735,-0.7381,-0.7378,-0.7385,-0.7422,-0.7451,-0.7456,-0.7458,-0.7446,-0.7461,-0.747,-0.7463,-0.7521,-0.7505,-0.7512,-0.7532,-0.7589,-0.7592,-0.7595,-0.7612,-0.7618,-0.7622,0,0,0,0,0,0,-0.7365,-0.7384,-0.738,-0.7417,-0.7433,-0.7449,-0.7468,-0.7464,-0.7483,-0.7481,-0.7483,-0.7488,-0.7521,-0.753,-0.7512,-0.757,-0.7553,-0.7557,-0.7564,-0.7569,-0.7574,-0.7572,-0.7498,0,0,0,0,0,-0.7373,-0.7395,-0.741,-0.7441,-0.7449,-0.7457,-0.747,-0.7471,-0.7487,-0.7493,-0.7504,-0.752,-0.7541,-0.7555,-0.7576,-0.7614,-0.7619,-0.7632,-0.7636,-0.7639,-0.7644,-0.7665,-0.7671,-0.7605,-0.7605,-0.7605,0,0,-0.7389,-0.7402,-0.7416,-0.7445,-0.7457,-0.748,-0.7463,-0.7488,-0.7505,-0.7497,-0.7529,-0.7537,-0.7555,-0.7591,-0.7607,-0.7599,-0.7662,-0.7643,-0.7646,-0.7648,-0.7669,-0.7675,-0.768,-0.7607,-0.7607,-0.7607,0,0,-0.7431,-0.7442,-0.747,-0.7482,-0.7501,-0.7506,-0.7512,-0.7529,-0.7535,-0.7566,-0.7561,-0.7581,-0.7618,-0.7631,-0.7642,-0.7687,-0.7683,-0.7694,-0.7717,-0.7738,-0.7743,-0.7748,-0.7765,-0.7771,-0.7697,-0.7698,-0.7698,0,-0.7449,-0.7483,-0.7485,-0.7511,-0.7524,-0.7517,-0.7545,-0.7557,-0.7581,-0.759,-0.758,-0.7626,-0.7637,-0.7677,-0.7688,-0.7697,-0.7704,-0.7692,-0.7742,-0.7747,-0.7751,-0.7767,-0.7774,-0.7699,-0.7699,-0.7699,-0.7698,0,-0.7505,-0.7529,-0.7549,-0.7573,-0.7588,-0.7615,-0.762,-0.7635,-0.7634,-0.764,-0.7672,-0.7685,-0.7708,-0.7717,-0.7716,-0.7756,-0.7751,-0.7741,-0.7724,-0.7759,-0.7774,-0.778,-0.7701,-0.77,-0.77,-0.77,0,0,-0.7559,-0.7582,-0.759,-0.76,-0.7619,-0.7638,-0.7664,-0.7687,-0.77,-0.7716,-0.7738,-0.7769,-0.7761,-0.7774,-0.7774,-0.7792,-0.7828,-0.7781,-0.7781,-0.779,-0.7873,-0.7881,-0.7889,-0.7824,-0.7825,-0.7826,-0.7872,0,-0.7603,-0.765,-0.7651,-0.7694,-0.7716,-0.7709,-0.7732,-0.7746,-0.7752,-0.7772,-0.7778,-0.78,-0.7787,-0.7795,-0.7812,-0.782,-0.7845,-0.7816,-0.7846,-0.7847,-0.7843,-0.7897,-0.7905,-0.7948,-0.7878,-0.7879,-0.788,0,-0.7661,-0.7679,-0.7724,-0.774,-0.775,-0.777,-0.7791,-0.781,-0.7825,-0.7828,-0.7842,-0.784,-0.7866,-0.7847,-0.7884,-0.7865,-0.7876,-0.7882,-0.7884,-0.7888,-0.7867,-0.7903,-0.7962,-0.7969,-0.7889,-0.7889,-0.7888,0,-0.7697,-0.7733,-0.7765,-0.7774,-0.7793,-0.7807,-0.7816,-0.783,-0.7844,-0.7861,-0.787,-0.7891,-0.7902,-0.7918,-0.7921,-0.7907,-0.7959,-0.794,-0.7962,-0.7963,-0.7975,-0.7975,-0.8038,-0.798,-0.798,-0.798,-0.798,0,-0.7747,-0.7775,-0.7781,-0.7801,-0.7832,-0.7833,-0.7863,-0.7871,-0.7884,-0.7904,-0.7899,-0.7919,-0.7921,-0.7941,-0.7943,-0.7974,-0.7979,-0.7982,-0.7983,-0.7984,-0.7983,-0.7993,-0.799,-0.7982,-0.7981,-0.7981,-0.7981,0,-0.7794,-0.7799,-0.7833,-0.7848,-0.7852,-0.7874,-0.7887,-0.7906,-0.791,-0.7937,-0.7943,-0.7951,-0.7974,-0.7978,-0.8006,-0.8007,-0.8044,-0.8041,-0.8039,-0.8039,-0.8063,-0.8061,-0.8135,-0.8145,-0.808,-0.808,-0.8081,0,-0.7826,-0.7848,-0.7865,-0.7879,-0.7888,-0.791,-0.7923,-0.7925,-0.7939,-0.7958,-0.7975,-0.7997,-0.8016,-0.8053,-0.8061,-0.8082,-0.808,-0.8105,-0.8084,-0.8084,-0.8082,-0.8082,-0.8084,-0.811,-0.811,-0.8111,-0.8111,0,-0.7884,-0.7885,-0.7905,-0.7926,-0.7942,-0.7959,-0.7974,-0.7985,-0.7989,-0.8005,-0.8029,-0.8043,-0.8071,-0.8094,-0.8115,-0.8123,-0.8118,-0.8117,-0.8124,-0.8126,-0.8125,-0.8127,-0.8052,-0.8116,-0.8116,-0.8115,-0.8115,-0.8115,-0.7925,-0.7944,-0.7959,-0.7982,-0.7993,-0.8008,-0.8026,-0.8033,-0.8053,-0.8076,-0.8075,-0.8102,-0.8116,-0.8143,-0.8153,-0.8174,-0.8166,-0.8175,-0.8178,-0.8181,-0.8183,-0.812,-0.8177,-0.8177,-0.8177,-0.8177,-0.8177,0,-0.7984,-0.7993,-0.8013,-0.8035,-0.8053,-0.8045,-0.8062,-0.8077,-0.8101,-0.8115,-0.8133,-0.816,-0.8182,-0.8191,-0.8213,-0.8227,-0.8226,-0.8233,-0.8233,-0.8235,-0.8188,-0.8181,-0.8234,-0.8234,-0.8234,-0.8234,-0.8234,-0.8234,-0.8016,-0.8048,-0.8051,-0.8088,-0.8097,-0.8123,-0.8133,-0.8146,-0.8158,-0.8188,-0.8207,-0.8212,-0.8224,-0.8247,-0.8266,-0.8268,-0.8277,-0.8286,-0.8287,-0.8244,-0.8238,-0.8233,-0.8226,-0.8288,-0.8288,-0.8333,-0.8333,-0.8333]}]]